GFSNE_con_3kmhel_210.txt.gz
Helicity
199 178 184 259 246 232 351 273 330 266 183 186 210 214 234 227 196 219 201 142 132 135 126 118 103 82 65 61 76 82 85 91 67 54 52 66 71 78
200 199 176 221 239 244 249 284 280 212 142 177 154 165 219 219 194 207 169 144 131 127 118 109 96 88 77 65 83 92 80 68 65 59 79 81 81 78
214 189 176 243 225 233 220 209 239 230 155 223 202 195 236 230 250 205 170 156 153 116 93 81 79 84 75 75 79 83 76 66 68 81 74 76 72 71
171 187 195 214 200 239 230 246 278 271 198 150 194 214 199 227 221 198 167 152 141 128 96 76 82 77 66 54 62 61 59 70 70 70 65 68 71 80
184 164 172 196 229 264 232 248 274 227 246 132 167 202 236 255 245 210 170 142 113 87 78 74 69 63 58 52 60 51 76 64 54 53 57 74 84 106
195 144 160 205 260 246 265 248 221 191 202 193 163 217 241 228 194 174 157 136 115 107 96 81 77 65 56 55 62 71 58 53 58 63 84 92 104 99
179 191 240 260 292 212 186 181 186 166 137 185 194 201 253 243 161 127 135 113 98 80 80 70 64 62 72 74 68 59 61 61 58 93 99 108 111 88
173 128 171 182 188 181 127 117 115 139 147 158 177 213 188 152 126 101 113 104 99 69 72 61 57 61 59 69 52 44 52 60 100 105 100 87 81 77
172 160 159 142 181 210 119 125 108 106 141 143 195 157 132 85 100 119 115 113 105 71 74 87 56 50 50 78 55 38 55 94 117 104 96 90 85 79
169 149 140 134 136 179 215 219 195 175 133 131 142 89 80 60 67 76 69 76 62 58 48 45 60 72 74 67 56 78 106 131 102 97 99 105 92 81
162 122 121 119 110 152 223 234 241 208 166 148 123 110 96 85 67 75 50 41 44 55 91 83 85 71 77 82 95 125 137 109 101 101 93 91 95 89
165 152 152 135 124 139 187 170 197 139 129 149 161 143 112 90 83 59 63 88 78 94 37 51 46 31 23 62 97 101 104 90 92 90 101 105 114 151
121 118 94 91 80 83 94 107 95 60 105 110 97 64 57 67 61 45 33 42 50 28 26 42 32 40 52 85 92 108 97 111 146 142 113 124 137 127
77 56 47 56 65 75 84 90 68 62 60 61 45 38 50 55 66 27 6 9 16 18 35 65 57 68 79 78 89 91 96 108 104 131 153 126 106 93
58 51 57 59 67 65 59 52 56 53 63 67 62 64 70 56 28 23 21 20 33 49 64 75 94 84 95 106 106 116 79 103 101 79 132 151 150 144
77 85 80 79 72 70 73 64 61 89 90 78 80 63 69 68 63 56 53 64 65 81 89 83 83 89 102 104 101 105 119 133 121 120 136 138 131 123
84 85 90 79 72 78 63 93 81 64 60 62 84 98 99 96 89 102 105 99 63 83 93 97 96 94 99 107 117 127 118 111 131 153 150 137 125 120
66 64 51 34 51 66 70 67 60 63 80 99 112 115 119 120 118 117 135 111 82 95 97 93 106 86 89 77 10 81 98 119 145 152 134 144 138 119
53 45 42 62 67 69 68 76 88 95 111 135 144 143 147 140 129 126 137 122 118 118 114 105 116 123 99 111 89 -9 68 153 145 135 131 136 140 144
30 39 46 56 69 81 89 101 113 126 142 144 152 158 167 178 150 147 154 151 143 135 121 155 129 109 112 97 109 132 57 111 134 133 137 135 134 71
48 64 68 78 92 109 121 127 135 142 147 159 174 197 205 191 171 172 167 107 95 146 140 128 129 41 148 169 140 138 122 69 85 132 144 142 145 135
74 91 98 106 116 120 125 135 146 159 172 184 188 200 188 193 178 173 162 160 157 144 143 145 136 162 180 148 128 124 140 144 141 95 59 61 145 171
90 103 115 123 136 147 147 139 141 155 172 178 184 187 188 179 177 163 155 142 136 142 158 139 126 138 144 144 108 140 129 161 174 149 140 86 72 67

GFSNE_con_3kmhel_213.txt.gz
Helicity
140 154 222 255 218 233 255 253 277 172 208 211 250 239 363 356 315 191 169 123 104 163 180 193 140 108 107 105 94 85 91 99 91 74 54 57 65 72
139 133 177 228 246 219 223 203 196 195 172 219 224 252 271 250 182 197 180 161 142 149 143 135 108 94 94 83 70 82 89 84 73 65 58 73 67 63
130 129 171 237 230 210 181 197 228 246 226 176 212 141 164 189 207 189 202 206 185 138 134 128 105 85 75 59 60 62 72 73 65 61 67 57 68 62
138 142 188 247 219 201 210 221 222 257 234 221 228 228 167 187 205 216 208 197 159 136 116 95 78 76 66 62 57 59 56 56 61 64 67 65 53 52
130 134 204 203 192 215 206 234 258 288 261 278 256 244 242 264 251 230 208 171 138 109 97 79 75 71 68 68 56 64 54 69 49 46 44 50 62 63
152 164 183 152 157 196 188 224 277 299 279 293 319 271 280 214 197 193 170 155 126 126 107 100 99 89 71 54 52 70 65 45 50 54 53 71 72 91
218 216 207 154 138 190 221 267 317 265 216 242 239 206 170 171 168 182 162 162 114 109 105 96 93 88 74 64 77 63 53 58 59 55 81 79 83 80
147 177 133 269 205 212 262 170 192 209 164 181 127 130 152 176 206 189 187 148 131 94 105 97 88 86 73 68 52 51 45 56 61 92 85 87 84 71
116 128 129 129 156 145 227 171 125 90 91 115 144 151 180 146 160 134 112 123 115 94 96 107 79 81 70 69 56 68 63 59 84 105 90 73 71 81
132 109 82 105 107 133 207 176 163 147 101 105 129 102 105 103 109 94 104 125 122 100 77 92 79 70 94 89 78 77 67 81 119 108 77 73 80 74
130 123 98 108 60 76 154 185 239 235 185 170 156 143 133 113 95 126 129 117 94 74 93 97 105 101 110 96 62 64 77 91 93 96 77 86 79 76
142 126 136 90 86 114 153 145 200 185 131 142 156 164 147 118 103 94 79 85 78 88 82 93 83 76 65 41 54 75 109 89 85 74 75 82 85 123
95 90 91 106 114 128 136 116 114 92 132 147 141 126 107 97 95 95 92 80 64 74 50 60 51 46 52 74 87 111 110 108 127 116 85 94 116 137
63 41 44 60 71 75 83 92 78 75 74 86 86 78 81 81 90 84 58 41 25 23 33 61 64 74 93 100 99 90 101 108 92 98 114 98 98 100
47 52 65 68 78 75 62 59 54 59 70 83 80 78 77 89 87 59 49 38 25 23 45 62 91 100 119 118 121 117 77 75 83 43 93 125 125 131
60 56 58 63 57 60 66 64 62 75 86 90 101 102 95 84 79 84 81 81 71 48 85 71 96 124 126 117 121 115 108 107 100 95 98 103 105 115
38 35 43 46 50 58 67 72 77 95 95 86 89 91 88 99 103 128 128 132 106 82 96 75 79 102 112 111 127 126 119 117 117 124 130 122 126 126
22 32 38 43 50 53 62 66 65 67 79 92 98 110 123 142 150 162 169 165 129 125 123 95 105 133 130 90 46 94 107 98 106 127 144 145 136 118
43 38 42 49 56 67 74 83 90 89 101 111 127 137 154 157 155 183 189 174 137 149 145 137 135 134 142 119 127 23 51 136 135 135 126 141 147 144
30 37 43 53 63 72 80 96 106 113 123 129 138 146 164 187 204 196 197 176 171 166 148 158 145 143 148 109 109 139 58 124 140 134 144 146 143 65
47 60 67 76 87 95 103 112 122 130 139 149 160 174 184 203 188 187 176 130 118 164 157 155 137 77 160 167 137 138 124 56 64 130 142 136 136 123
71 85 93 99 108 118 129 136 142 149 149 151 154 161 170 186 185 179 184 160 155 153 150 158 140 160 171 161 132 114 133 119 130 94 63 72 173 190
86 95 100 105 112 117 124 129 133 146 158 142 145 150 153 154 152 160 163 166 156 151 154 141 130 138 160 155 107 133 124 151 169 138 124 83 71 68

GFSNE_con_3kmhel_219.txt.gz
Helicity
99 104 107 98 116 132 157 135 126 121 93 85 119 102 143 142 197 229 359 320 382 502 314 300 296 274 252 236 196 139 104 90 71 64 65 61 42 41
88 87 95 113 106 101 124 125 129 114 100 108 130 144 168 158 151 178 201 268 295 260 348 285 220 256 221 180 123 99 86 73 75 76 77 68 61 59
79 72 69 94 126 121 128 125 128 151 125 193 176 157 168 162 215 228 226 325 304 238 283 182 156 145 129 125 111 91 85 92 83 80 80 73 70 85
75 81 74 91 98 134 128 120 131 138 189 202 211 199 208 197 225 237 243 269 284 236 223 110 87 112 111 103 102 83 86 92 84 83 84 91 86 81
81 83 85 96 89 117 120 133 166 230 259 213 229 198 198 228 270 277 282 253 238 209 116 123 118 89 93 95 83 74 74 68 67 61 72 68 64 59
57 51 64 73 99 126 138 160 199 221 250 249 252 211 195 219 266 263 270 273 216 191 178 164 132 110 89 88 73 80 83 79 75 66 62 54 52 51
41 14 2 50 57 93 173 209 141 162 200 219 202 194 219 247 199 269 264 232 229 220 160 137 112 99 103 95 87 75 64 61 56 47 49 54 52 65
49 87 92 76 72 79 102 166 163 198 210 207 225 223 212 206 244 226 256 235 203 167 147 122 86 79 78 77 61 54 47 44 47 49 54 60 68 80
69 59 87 143 135 126 142 135 173 141 149 231 173 114 143 159 198 210 173 154 127 117 96 102 76 89 71 68 53 45 47 57 62 69 68 70 98 94
70 58 61 62 69 119 170 199 249 278 256 179 195 119 104 124 109 94 105 131 126 95 79 110 90 83 68 63 69 70 68 67 71 70 75 102 85 87
33 55 61 54 51 58 90 105 130 151 111 97 99 64 59 80 81 117 98 104 110 94 73 89 94 90 85 80 69 64 79 83 104 101 92 88 81 84
73 92 79 43 33 38 54 58 108 102 135 145 137 135 127 103 80 52 61 95 101 98 75 76 74 75 66 53 36 52 67 69 77 82 87 89 84 103
109 109 77 88 77 78 81 69 53 34 69 84 97 95 96 100 101 101 92 89 90 93 68 79 79 83 82 73 52 53 72 88 102 96 91 82 79 69
92 73 67 84 82 78 59 48 36 27 30 55 64 71 76 86 99 113 120 110 99 98 73 87 83 65 59 56 32 61 67 78 83 87 98 86 62 52
49 57 71 67 66 59 47 33 19 25 32 49 52 46 59 66 84 101 97 101 94 97 98 94 93 86 73 59 43 64 67 62 63 54 72 71 69 62
60 54 54 59 63 42 38 40 43 46 52 63 66 81 79 82 90 87 90 94 99 99 108 100 107 122 117 74 52 71 66 84 84 61 47 56 56 58
41 34 46 46 45 40 39 46 52 62 65 60 66 72 79 85 93 97 109 119 121 127 130 141 136 135 125 84 108 92 86 79 62 59 65 66 72 73
39 45 47 44 44 40 47 50 53 65 69 77 88 95 100 102 107 121 127 130 128 129 129 137 140 153 153 102 68 94 88 88 79 77 83 96 112 91
42 42 41 46 44 51 58 65 73 79 81 94 108 121 129 131 131 130 125 128 128 128 116 119 137 157 130 120 130 42 69 87 100 97 88 101 115 121
44 51 57 61 68 76 80 87 92 100 109 120 123 128 130 133 138 124 129 146 146 140 128 135 132 124 141 127 131 119 90 106 102 95 110 111 123 60
57 65 71 78 81 84 92 100 108 121 131 134 140 142 146 142 138 137 136 137 127 126 113 109 107 127 140 145 122 98 86 52 70 126 134 117 119 104
76 83 93 107 117 119 114 112 122 137 146 148 147 142 136 130 128 124 123 121 121 115 113 113 100 94 102 113 97 71 90 90 105 78 68 82 160 179
96 106 116 126 121 108 107 112 121 125 123 116 111 111 116 123 122 120 126 123 109 96 90 76 75 90 88 101 90 107 100 120 124 78 88 64 72 72

GFSNE_con_3kmhel_222.txt.gz
Helicity
110 101 107 104 101 66 118 127 116 133 124 89 86 83 97 113 108 126 174 180 159 287 252 274 367 339 275 342 331 301 224 172 124 91 80 69 52 58
110 87 84 75 84 86 88 94 100 98 97 115 98 113 111 116 111 110 167 216 258 341 319 385 441 434 373 245 236 235 181 159 115 98 97 97 89 73
77 78 61 52 69 95 98 62 86 102 103 187 165 127 138 136 165 165 177 215 194 208 236 323 357 287 275 215 186 170 155 119 112 112 99 99 95 82
54 67 67 67 54 61 77 78 57 77 102 148 196 197 184 193 192 205 223 247 291 229 249 288 288 292 236 240 184 168 152 96 103 108 106 116 114 90
77 80 67 53 47 73 66 80 91 98 112 213 216 266 203 212 247 248 247 276 307 264 206 204 221 246 175 170 172 160 94 86 104 99 102 96 100 92
53 54 51 46 48 87 65 97 123 118 175 235 264 269 234 211 240 246 248 277 286 277 265 256 223 158 144 122 113 92 82 90 101 90 86 87 74 71
19 10 14 4 17 22 76 121 174 193 151 150 186 149 241 233 174 209 280 258 268 258 244 226 174 161 146 144 119 93 67 75 73 77 74 66 63 57
-26 3 29 67 49 46 117 111 113 172 128 155 160 122 154 149 213 246 291 267 218 207 179 159 191 207 169 127 77 67 68 73 69 65 58 52 58 70
39 38 53 69 106 120 142 192 158 128 103 131 139 143 133 165 223 220 250 249 210 181 184 158 120 129 90 65 63 76 66 52 49 55 58 64 68 68
46 60 53 51 65 87 100 135 131 168 169 164 153 159 149 143 171 168 198 198 186 117 75 109 87 84 74 69 63 58 57 54 48 48 55 62 82 92
74 78 74 68 61 58 60 70 120 154 193 208 219 146 123 116 122 136 113 94 105 83 57 96 106 107 90 81 74 57 36 47 53 78 87 90 90 95
71 82 97 49 41 45 46 47 83 98 81 92 112 135 127 111 81 47 62 79 106 118 87 103 104 107 104 90 69 54 47 30 34 50 71 77 73 103
89 91 75 83 82 76 63 55 66 45 86 98 85 79 72 78 84 94 96 104 117 127 88 97 106 109 108 103 95 75 53 26 32 64 69 73 81 94
90 85 80 85 82 80 65 59 48 40 42 60 67 74 77 88 96 101 117 124 126 121 78 92 107 107 114 110 93 91 70 47 46 68 86 81 70 64
67 72 68 73 79 77 65 53 44 48 54 65 65 65 70 80 92 107 102 94 95 97 90 95 103 107 107 109 114 91 78 40 36 61 89 89 93 93
57 52 60 67 64 39 40 46 47 44 50 54 57 61 66 70 80 91 101 104 100 99 100 96 104 121 123 106 109 94 82 66 72 83 83 81 71 64
37 36 45 45 43 38 38 45 51 59 69 68 70 74 80 87 99 105 114 116 119 119 115 110 113 118 122 124 133 108 102 96 80 79 81 76 76 72
40 51 53 46 48 52 54 57 64 71 74 78 88 99 109 116 119 115 114 119 126 125 125 135 138 138 123 104 53 93 92 82 81 83 72 76 86 80
49 46 49 54 56 59 64 71 78 82 81 98 111 119 123 127 134 140 143 140 125 114 117 124 124 115 109 101 98 47 78 73 78 84 83 88 91 96
56 59 61 65 72 79 83 88 94 103 114 120 128 137 142 141 143 146 140 124 113 113 114 111 107 106 120 124 116 110 108 118 97 90 90 96 100 40
65 75 80 89 101 111 120 117 113 115 120 127 137 138 136 130 130 126 122 123 122 123 120 118 140 121 111 109 114 100 86 65 82 116 119 114 114 95
84 92 99 109 119 122 116 112 117 126 130 128 119 106 102 100 109 109 107 110 109 107 94 87 75 73 69 71 85 79 90 92 91 68 66 89 154 176
95 103 111 117 116 118 119 119 118 115 106 93 87 85 89 93 88 85 80 72 67 62 57 56 58 56 65 70 69 91 90 113 109 82 106 62 72 90

GFSNE_con_3kmhel_225.txt.gz
Helicity
76 87 123 119 111 111 130 95 168 140 162 145 96 93 110 132 116 103 110 123 120 81 117 116 94 62 50 132 167 219 227 420 300 204 148 112 93 71
93 98 94 105 97 83 85 76 67 99 97 113 115 196 132 129 114 128 131 166 149 157 176 188 245 316 399 355 596 429 499 334 250 201 157 131 107 96
91 100 97 77 94 87 65 81 97 83 115 112 174 128 97 93 117 144 169 173 153 145 158 213 287 264 353 392 370 367 339 254 211 163 157 142 135 110
57 66 68 83 81 78 71 63 84 92 103 84 93 150 105 146 151 177 204 249 233 164 191 216 204 256 318 322 301 351 298 244 202 198 191 156 130 122
70 73 74 60 57 64 57 47 51 105 102 136 151 174 159 188 233 251 273 293 348 275 194 208 228 226 219 239 249 259 230 215 219 217 208 137 103 104
39 57 46 45 24 55 35 47 65 98 116 195 188 186 162 176 198 259 233 269 278 264 245 258 256 263 241 231 224 169 160 163 155 141 128 87 88 88
25 26 29 13 31 25 37 43 43 118 171 218 189 134 139 157 195 198 285 210 248 246 236 238 212 223 232 251 180 177 166 139 132 118 92 76 81 76
2 4 38 58 88 120 115 175 116 116 149 80 162 108 151 133 175 187 218 198 180 192 197 184 167 162 160 168 176 200 192 169 110 73 69 71 69 61
46 42 58 47 62 70 117 176 148 138 118 59 76 92 87 110 153 184 206 208 166 125 143 133 133 108 125 130 105 106 98 75 53 52 52 52 51 53
40 44 40 52 53 55 91 118 126 155 124 120 118 123 97 99 122 155 188 194 199 139 133 166 148 144 105 75 53 46 53 54 47 42 45 47 48 59
45 57 46 57 65 80 57 71 103 128 148 177 193 166 134 121 110 131 134 154 180 174 90 154 110 105 87 86 95 78 62 60 57 58 54 46 45 59
49 62 89 64 72 65 44 63 80 71 62 80 90 116 120 107 89 79 69 107 112 105 57 68 79 100 111 101 87 78 72 53 41 28 19 16 36 104
65 81 76 100 91 84 63 43 44 20 53 53 56 61 69 77 76 78 80 85 88 102 78 99 107 117 131 128 112 104 100 89 84 78 53 35 43 74
75 65 70 83 86 75 48 45 30 21 16 36 51 67 67 71 76 84 102 111 117 111 98 115 119 126 134 136 126 122 110 101 102 95 72 40 46 67
60 60 62 66 62 57 70 63 53 46 46 52 50 52 57 63 67 81 92 98 102 99 100 106 121 127 135 136 143 128 116 106 108 93 77 78 95 116
54 61 62 53 52 41 44 55 56 57 53 50 49 50 55 66 80 89 98 105 110 110 106 110 120 137 140 128 132 121 120 122 117 103 79 89 108 111
37 36 41 36 31 33 39 47 49 54 62 64 72 78 81 87 95 103 110 111 114 114 113 105 91 101 110 116 143 124 113 119 116 108 123 115 110 99
40 40 38 41 45 43 46 50 57 71 73 76 81 89 99 108 114 108 106 113 123 124 120 102 91 95 100 98 58 110 109 107 114 107 112 109 106 103
49 49 50 54 56 60 69 75 79 81 83 97 109 125 133 139 145 139 139 133 128 124 119 110 105 108 114 114 94 36 105 111 124 117 112 116 122 130
67 70 72 76 83 94 103 110 111 111 115 125 133 137 137 137 134 130 119 114 110 107 106 103 97 103 107 116 110 93 68 89 105 118 127 123 133 77
76 87 95 101 108 116 125 125 124 122 124 123 119 115 109 101 99 93 90 105 110 94 95 91 82 62 76 86 86 95 104 51 64 120 124 124 112 89
94 101 105 112 124 130 130 129 127 128 122 112 100 86 77 73 81 84 85 85 75 67 63 65 64 64 71 63 66 65 95 111 106 57 28 55 123 155
104 112 117 125 126 124 128 127 120 106 92 73 62 61 62 65 67 69 61 58 57 59 56 56 58 61 73 102 65 83 85 105 107 79 98 59 57 79

GFSNE_con_3kmhel_228.txt.gz
Helicity
51 73 84 78 100 111 113 134 151 131 107 101 89 112 113 130 144 116 118 101 92 79 60 114 116 122 112 101 43 23 42 143 187 212 192 159 104 88
54 58 84 102 118 127 126 127 133 136 137 82 100 86 144 119 117 125 113 125 105 109 135 155 143 121 97 70 130 193 236 279 358 373 333 255 178 126
47 72 73 69 92 103 101 113 120 121 132 123 110 82 96 82 102 78 122 129 122 113 126 183 179 205 211 279 276 564 492 445 392 423 367 228 176 175
49 46 44 64 64 87 96 105 112 104 112 109 118 121 121 105 93 120 74 151 172 135 120 142 182 231 268 300 280 261 373 402 273 242 271 195 214 209
40 54 55 60 53 57 66 72 85 80 79 113 125 149 171 162 186 260 174 245 311 261 188 154 156 181 206 194 223 279 309 310 257 237 226 206 193 192
16 26 40 27 7 18 39 62 54 62 81 117 133 180 178 170 163 138 206 237 334 312 286 260 280 244 234 237 237 230 209 215 233 156 158 179 186 159
22 33 29 49 92 83 41 22 38 74 103 133 163 144 136 117 154 171 190 242 265 252 242 229 191 174 173 209 189 199 186 178 184 183 174 160 140 123
36 29 19 36 33 63 89 110 124 69 58 98 150 103 81 109 144 144 183 194 159 166 142 158 132 131 145 141 130 132 185 194 171 161 160 153 129 92
47 42 21 20 42 36 78 148 182 146 75 58 64 53 48 67 95 132 119 128 130 96 100 112 99 105 103 109 110 112 109 115 126 129 123 92 69 59
41 23 28 38 42 31 58 98 115 147 126 89 91 87 82 103 76 79 123 122 128 117 122 132 130 139 143 136 117 107 102 96 82 68 56 53 61 67
41 52 27 28 34 38 38 40 54 57 96 118 112 124 118 101 74 75 78 94 123 134 128 150 133 140 129 106 77 63 55 58 60 63 67 62 57 52
63 86 62 37 27 37 25 27 58 47 38 58 63 98 106 89 70 44 36 59 56 58 45 78 81 83 91 68 65 82 87 70 72 71 58 49 41 72
82 77 46 72 71 56 38 17 14 -13 10 17 26 37 54 63 60 53 54 47 50 49 43 60 69 87 101 95 96 97 96 92 96 91 81 75 66 63
74 45 50 76 75 61 42 59 47 25 17 28 40 48 50 60 65 68 78 87 89 82 89 96 96 104 110 118 111 113 111 105 110 117 116 99 88 84
36 51 61 61 57 57 83 80 68 43 35 44 40 39 41 45 58 59 66 74 79 84 93 105 106 112 121 117 121 123 121 112 122 138 132 124 133 138
52 43 47 54 70 65 62 73 62 53 49 50 54 54 59 76 87 94 103 114 120 124 117 117 128 132 146 132 140 128 129 141 135 136 145 142 130 118
46 50 55 55 65 64 59 68 66 77 86 76 82 87 95 97 99 106 109 119 136 141 147 131 127 118 116 111 103 104 111 125 134 127 129 124 113 112
50 44 51 56 60 60 68 71 83 97 88 88 101 111 121 131 132 136 131 136 140 129 123 106 95 91 102 84 32 97 136 137 131 115 114 125 107 92
60 66 69 77 76 84 89 90 98 101 104 109 113 119 126 129 136 130 122 117 111 101 102 108 108 105 125 110 89 79 90 83 82 78 89 109 103 104
83 88 86 87 88 94 101 100 99 102 115 122 128 126 125 117 108 100 96 87 82 80 90 84 79 72 64 56 71 93 52 82 87 81 92 100 114 38
85 89 89 91 94 98 102 105 115 123 124 124 119 110 96 84 78 75 78 98 96 79 80 78 66 36 53 78 71 83 110 67 57 74 83 80 72 54
88 91 92 93 91 99 105 113 120 125 120 112 98 85 77 78 75 78 81 78 67 66 73 78 64 61 83 71 82 94 131 119 114 49 20 35 86 101
91 91 92 99 107 107 107 108 107 106 101 93 72 75 66 75 73 67 71 74 73 69 67 68 68 116 137 139 53 109 110 107 95 72 97 53 39 60